"startDT [UTC]","vpos","CH4 [ppm]","stdev(CH4) [ppm]","CO2 [ppm]","stdev(CO2) [ppm]","H2O_reported [%]","stdev(H2O_reported)","CavityPressure [torr]","CavityTemp [C]","OutletValve","CH4_dry [ppm]","CO2_dry [ppm]","DasTemp [C]","EtalonTemp [C]","WarmBoxTemp [C]","MPVPosition","T_ECpre [C]","T_EC1 [C]","T_EC2 [C]","p_inlet [hPa]","p_in [hPa]","p_out [hPa]","T_inlet [C]","RH_inlet [%]","dwpt_inlet [C]","T_vent [C]","RH_vent [%]","dwpt_vent [C]","flow_vent [l min-1]","flow_inlet [l min-1]","dwpt_sample [C]","T_room [C]"
2015-07-29 00:00:00,0.0,1.88379,0.00035,385.019,0.061,1.0079,0.0025,139.998,45.000,34391.70470,1.90310,389.839,32.250,45.068,45.000,0.00,0.10,-272.73,-272.80,-6,996,-4,22.7,28.8,3.7,22.5,29.6,3.9,5.73,1.98,1.9,26.9
2015-07-29 00:01:00,0.0,1.88265,0.00037,385.140,0.081,1.0080,0.0018,139.999,45.000,34391.71478,1.90197,389.960,32.250,45.068,45.000,0.00,0.10,-272.73,-272.79,-7,996,-4,22.7,28.8,3.6,22.5,29.6,3.9,5.73,1.99,2.0,26.8
2015-07-29 00:02:00,0.0,1.88254,0.00044,385.210,0.039,1.0070,0.0015,139.999,45.000,34391.78369,1.90184,390.029,32.250,45.068,45.000,0.00,0.10,-272.73,-272.78,-6,996,-4,22.7,28.8,3.6,22.5,29.6,3.9,5.73,1.95,2.0,26.9
2015-07-29 00:03:00,0.0,1.88275,0.00046,385.183,0.064,1.0068,0.0016,140.002,45.000,34392.09081,1.90202,390.004,32.247,45.068,45.000,0.00,0.10,-272.73,-272.79,-6,996,-4,22.7,28.8,3.6,22.5,29.6,3.9,5.73,1.89,1.9,26.9
2015-07-29 00:04:00,0.0,1.88302,0.00046,385.054,0.059,1.0066,0.0017,140.005,45.000,34393.04322,1.90224,389.868,32.250,45.068,45.000,0.00,0.10,-272.73,-272.79,-6,996,-4,22.7,28.8,3.6,22.5,29.6,3.8,5.73,1.88,1.9,26.8
2015-07-29 00:05:00,0.0,1.88323,0.00055,385.095,0.082,1.0045,0.0016,139.997,45.000,34388.67387,1.90247,389.897,32.247,45.068,45.000,0.00,0.10,-272.72,-272.79,-7,996,-4,22.7,28.7,3.6,22.5,29.6,3.9,5.73,1.95,1.9,26.8
2015-07-29 00:06:00,0.0,1.88305,0.00035,385.278,0.070,1.0051,0.0012,140.004,45.000,34391.99846,1.90227,390.091,32.250,45.068,45.000,0.00,0.10,-272.73,-272.79,-6,996,-4,22.7,28.7,3.6,22.5,29.5,3.8,5.73,2.00,2.0,26.8
2015-07-29 00:07:00,0.0,1.88338,0.00046,385.156,0.049,1.0035,0.0024,140.001,45.000,34391.18236,1.90257,389.953,32.250,45.068,45.000,0.00,0.10,-272.73,-272.79,-6,996,-4,22.7,28.6,3.6,22.5,29.5,3.8,5.73,1.98,1.9,26.9
2015-07-29 00:08:00,0.0,1.88313,0.00022,385.131,0.066,1.0006,0.0017,140.003,45.000,34391.46464,1.90230,389.924,32.250,45.068,45.000,0.00,0.10,-272.73,-272.79,-6,996,-4,22.7,28.6,3.6,22.5,29.4,3.8,5.73,1.91,2.0,26.9
2015-07-29 00:09:00,0.0,1.88292,0.00042,385.328,0.094,1.0026,0.0019,139.997,45.000,34389.52905,1.90214,390.115,32.250,45.068,45.000,0.00,0.10,-272.73,-272.79,-7,996,-4,22.7,28.6,3.6,22.5,29.5,3.8,5.73,1.87,1.9,26.9
2015-07-29 00:10:00,0.0,1.88252,0.00034,385.325,0.078,1.0019,0.0023,140.000,45.000,34391.18296,1.90170,390.127,32.250,45.068,45.000,0.00,0.10,-272.73,-272.80,-7,996,-4,22.7,28.6,3.6,22.5,29.4,3.8,5.73,1.91,1.9,26.9
2015-07-29 00:11:00,0.0,1.88263,0.00033,385.282,0.073,1.0010,0.0026,139.999,45.000,34391.89902,1.90174,390.069,32.250,45.068,45.000,0.00,0.10,-272.73,-272.79,-6,996,-4,22.7,28.6,3.6,22.5,29.4,3.8,5.73,1.99,1.9,26.9
2015-07-29 00:12:00,0.0,1.88301,0.00042,385.176,0.091,0.9993,0.0025,140.001,45.000,34392.36145,1.90210,389.966,32.249,45.068,45.000,0.00,0.10,-272.73,-272.79,-6,996,-4,22.7,28.5,3.5,22.5,29.3,3.8,5.73,2.00,2.0,26.9
2015-07-29 00:13:00,0.0,1.88324,0.00046,385.127,0.090,0.9994,0.0018,139.999,45.000,34390.35641,1.90237,389.904,32.233,45.068,45.000,0.00,0.10,-272.73,-272.79,-7,996,-4,22.7,28.5,3.5,22.5,29.4,3.8,5.73,1.94,2.0,26.9
2015-07-29 00:14:00,0.0,1.88285,0.00034,385.174,0.043,0.9984,0.0022,140.000,45.000,34390.42062,1.90200,389.950,32.216,45.068,45.000,0.00,0.10,-272.73,-272.79,-7,996,-4,22.7,28.5,3.5,22.5,29.3,3.7,5.73,1.88,2.0,26.9
2015-07-29 00:15:00,0.0,1.88204,0.00043,385.203,0.078,0.9966,0.0021,140.000,45.000,34390.93656,1.90115,389.969,32.217,45.068,45.000,0.00,0.10,-272.72,-272.79,-6,996,-4,22.7,28.4,3.5,22.5,29.3,3.7,5.73,1.89,2.0,26.8
2015-07-29 00:16:00,0.0,1.88238,0.00040,385.273,0.075,0.9958,0.0026,139.999,45.000,34387.57050,1.90141,390.034,32.241,45.069,45.000,0.00,0.10,-272.73,-272.80,-6,996,-4,22.7,28.4,3.4,22.5,29.2,3.7,5.73,1.96,1.9,26.9
2015-07-29 00:17:00,0.0,1.88227,0.00027,385.291,0.044,0.9929,0.0025,140.002,45.000,34390.10744,1.90126,390.044,32.250,45.068,45.000,0.00,0.10,-272.73,-272.79,-7,996,-4,22.7,28.4,3.4,22.5,29.2,3.7,5.73,2.00,1.9,26.9
2015-07-29 00:18:00,0.0,1.88172,0.00049,385.144,0.120,0.9938,0.0010,140.003,45.000,34392.92921,1.90076,389.899,32.247,45.068,45.000,0.00,0.10,-272.73,-272.79,-7,996,-4,22.7,28.3,3.4,22.5,29.2,3.7,5.73,1.97,1.9,26.9
2015-07-29 00:19:00,0.0,1.88156,0.00046,385.266,0.078,0.9940,0.0018,140.002,45.000,34394.45561,1.90057,390.017,32.248,45.068,45.000,0.00,0.10,-272.73,-272.79,-6,996,-4,22.7,28.4,3.4,22.5,29.2,3.6,5.73,1.91,2.0,26.9
2015-07-29 00:20:00,0.0,1.88217,0.00048,385.117,0.112,0.9952,0.0014,140.000,45.000,34393.76775,1.90113,389.882,32.247,45.068,45.000,0.00,0.10,-272.73,-272.79,-6,996,-4,22.7,28.4,3.5,22.5,29.2,3.7,5.73,1.87,2.0,26.9
2015-07-29 00:21:00,0.0,1.88195,0.00057,385.087,0.177,0.9957,0.0024,139.998,45.000,34393.34406,1.90104,389.844,32.247,45.068,45.000,0.00,0.10,-272.73,-272.79,-7,996,-4,22.7,28.4,3.5,22.5,29.2,3.7,5.73,1.92,1.9,26.8
2015-07-29 00:22:00,0.0,1.88195,0.00041,385.226,0.058,0.9941,0.0022,139.998,45.000,34393.08627,1.90096,389.983,32.248,45.068,45.000,0.00,0.10,-272.72,-272.79,-7,996,-4,22.7,28.4,3.4,22.5,29.2,3.7,5.73,1.99,2.0,26.9
2015-07-29 00:23:00,0.0,1.88172,0.00043,385.259,0.086,0.9937,0.0016,139.995,45.000,34393.29044,1.90071,390.010,32.250,45.068,45.000,0.00,0.10,-272.74,-272.79,-6,996,-4,22.7,28.3,3.4,22.5,29.2,3.7,5.73,1.99,1.9,26.8
2015-07-29 00:24:00,0.0,1.88153,0.00046,385.191,0.069,0.9939,0.0023,140.000,45.000,34393.73465,1.90050,389.946,32.245,45.068,45.000,0.00,0.10,-272.74,-272.79,-6,996,-4,22.7,28.4,3.4,22.5,29.2,3.6,5.73,1.94,2.0,26.8
2015-07-29 00:25:00,0.0,1.88169,0.00049,385.213,0.085,0.9930,0.0022,139.999,45.000,34391.26346,1.90070,389.964,32.246,45.068,45.000,0.00,0.10,-272.73,-272.78,-7,996,-4,22.7,28.3,3.4,22.5,29.1,3.6,5.73,1.88,2.0,26.8
2015-07-29 00:26:00,0.0,1.88170,0.00046,385.171,0.099,0.9953,0.0023,140.004,45.000,34393.47730,1.90073,389.934,32.244,45.068,45.000,0.00,0.10,-272.73,-272.79,-7,996,-4,22.7,28.4,3.5,22.5,29.2,3.7,5.73,1.89,2.0,26.8
2015-07-29 00:27:00,0.0,1.88122,0.00040,385.268,0.169,0.9947,0.0017,139.996,45.000,34390.68914,1.90025,390.014,32.244,45.068,45.000,0.00,0.10,-272.73,-272.79,-6,996,-4,22.7,28.4,3.5,22.5,29.2,3.7,5.73,1.96,2.0,26.9
2015-07-29 00:28:00,0.0,1.88114,0.00038,385.298,0.087,0.9954,0.0017,140.004,45.000,34395.03856,1.90015,390.072,32.248,45.068,45.000,0.00,0.10,-272.73,-272.79,-6,996,-4,22.7,28.4,3.5,22.5,29.2,3.7,5.73,2.00,2.0,26.9
2015-07-29 00:29:00,0.0,1.88138,0.00041,385.271,0.040,0.9964,0.0017,139.997,45.000,34393.70889,1.90041,390.034,32.249,45.068,45.000,0.00,0.10,-272.73,-272.79,-6,996,-4,22.7,28.4,3.5,22.5,29.2,3.7,5.73,1.97,2.0,26.9
2015-07-29 00:30:00,0.0,1.88147,0.00044,385.263,0.090,0.9936,0.0020,139.996,45.000,34393.45879,1.90043,390.012,32.250,45.068,45.000,0.00,0.10,-272.73,-272.80,-7,996,-4,22.7,28.4,3.4,22.5,29.2,3.7,5.73,1.90,2.0,26.8
2015-07-29 00:31:00,0.0,1.88122,0.00041,385.405,0.095,0.9933,0.0016,139.998,45.000,34394.49350,1.90026,390.155,32.250,45.068,45.000,0.00,0.31,-270.86,-270.45,-6,996,-4,22.7,28.3,3.4,22.5,29.2,3.6,5.43,2.01,-1.7,26.8
2015-07-29 00:32:00,0.0,1.88131,0.00038,385.474,0.078,0.9904,0.0015,139.996,45.000,34394.14285,1.90024,390.216,32.250,45.068,45.000,0.00,0.10,-272.72,-272.79,-6,996,-4,22.7,28.3,3.4,22.5,29.1,3.6,5.73,1.92,2.0,26.9
2015-07-29 00:33:00,0.0,1.88127,0.00032,385.502,0.051,0.9910,0.0020,139.998,45.000,34395.94869,1.90020,390.244,32.250,45.068,45.000,0.00,0.10,-272.73,-272.80,-6,996,-4,22.7,28.2,3.4,22.5,29.1,3.6,5.73,2.00,2.0,26.8
2015-07-29 00:34:00,0.0,1.88080,0.00037,385.525,0.049,0.9914,0.0020,139.996,45.000,34395.42321,1.89973,390.271,32.250,45.068,45.000,0.00,0.10,-272.74,-272.79,-7,996,-4,22.7,28.2,3.4,22.5,29.1,3.6,5.73,1.99,2.0,26.8
2015-07-29 00:35:00,0.0,1.88144,0.00029,385.321,0.103,0.9899,0.0014,139.999,45.000,34395.16377,1.90035,390.064,32.250,45.068,45.000,0.00,0.10,-272.72,-272.79,-6,996,-4,22.7,28.3,3.4,22.5,29.1,3.6,5.73,1.93,2.0,26.9
2015-07-29 00:36:00,0.0,1.88135,0.00026,385.204,0.077,0.9928,0.0024,140.003,45.000,34395.46591,1.90035,389.956,32.248,45.068,45.000,0.00,0.10,-272.73,-272.79,-6,996,-4,22.7,28.3,3.4,22.5,29.1,3.6,5.73,1.88,2.0,26.9
2015-07-29 00:37:00,0.0,1.88095,0.00050,385.274,0.093,0.9924,0.0023,139.995,45.000,34395.28881,1.89994,390.013,32.251,45.068,45.000,0.00,0.10,-272.73,-272.79,-6,996,-4,22.7,28.3,3.4,22.5,29.1,3.7,5.73,1.90,2.0,26.9
2015-07-29 00:38:00,0.0,1.88015,0.00058,385.629,0.165,0.9925,0.0021,139.994,45.000,34395.17963,1.89918,390.373,32.250,45.068,45.000,0.00,0.10,-272.73,-272.79,-7,996,-4,22.7,28.3,3.4,22.5,29.1,3.6,5.73,1.97,2.0,26.9
2015-07-29 00:39:00,0.0,1.87971,0.00032,385.528,0.109,0.9941,0.0028,139.998,45.000,34395.02337,1.89869,390.289,32.250,45.068,45.000,0.00,0.10,-272.73,-272.78,-7,996,-4,22.7,28.4,3.4,22.5,29.1,3.7,5.73,2.00,2.0,26.9
2015-07-29 00:40:00,0.0,1.87957,0.00035,385.627,0.058,0.9951,0.0017,139.995,45.000,34394.69413,1.89858,390.394,32.250,45.068,45.000,0.00,0.10,-272.74,-272.79,-6,996,-4,22.7,28.3,3.4,22.5,29.2,3.6,5.73,1.97,2.0,26.9
2015-07-29 00:41:00,0.0,1.87947,0.00031,385.647,0.091,0.9945,0.0024,140.000,45.000,34396.23142,1.89842,390.410,32.250,45.068,45.000,0.00,0.10,-272.73,-272.79,-6,996,-4,22.7,28.4,3.5,22.5,29.2,3.7,5.73,1.90,2.0,26.9
2015-07-29 00:42:00,0.0,1.87943,0.00043,385.498,0.182,0.9967,0.0032,139.999,45.000,34396.57349,1.89848,390.261,32.250,45.068,45.000,0.00,0.10,-272.72,-272.79,-7,996,-4,22.7,28.4,3.5,22.5,29.2,3.7,5.73,1.88,2.0,26.9
2015-07-29 00:43:00,0.0,1.87853,0.00039,385.875,0.089,0.9928,0.0030,139.999,45.000,34397.74147,1.89754,390.637,32.250,45.068,45.000,0.00,0.10,-272.73,-272.79,-7,996,-4,22.7,28.3,3.4,22.5,29.1,3.6,5.73,1.92,2.0,26.9
2015-07-29 00:44:00,0.0,1.87839,0.00032,385.660,0.099,0.9949,0.0024,140.000,45.000,34399.74030,1.89739,390.423,32.253,45.068,45.000,0.00,0.10,-272.73,-272.80,-6,996,-4,22.7,28.4,3.5,22.5,29.2,3.7,5.73,1.99,2.0,26.9
2015-07-29 00:45:00,0.0,1.87802,0.00046,385.745,0.065,0.9960,0.0024,140.001,45.000,34397.74086,1.89704,390.519,32.251,45.068,45.000,0.00,0.10,-272.73,-272.79,-6,996,-4,22.7,28.4,3.5,22.5,29.2,3.7,5.73,1.99,2.0,26.9
2015-07-29 00:46:00,0.0,1.87759,0.00031,385.859,0.172,0.9973,0.0010,139.999,45.000,34398.57293,1.89664,390.626,32.250,45.068,45.000,0.00,0.10,-272.73,-272.79,-7,996,-4,22.7,28.4,3.5,22.5,29.2,3.7,5.73,1.93,2.0,26.9
2015-07-29 00:47:00,0.0,1.87730,0.00042,386.044,0.121,0.9963,0.0018,139.997,45.000,34398.16947,1.89630,390.819,32.253,45.068,45.000,0.00,0.10,-272.73,-272.80,-7,996,-4,22.7,28.4,3.5,22.5,29.2,3.7,5.73,1.88,2.0,26.9
2015-07-29 00:48:00,0.0,1.87643,0.00044,386.227,0.102,0.9938,0.0010,139.998,45.000,34401.66143,1.89545,390.990,32.254,45.068,45.000,0.00,0.10,-272.73,-272.79,-6,996,-4,22.8,28.3,3.5,22.5,29.2,3.7,5.73,1.89,2.0,26.9
2015-07-29 00:49:00,0.0,1.87674,0.00042,386.017,0.112,0.9951,0.0020,139.998,45.000,34400.05367,1.89564,390.792,32.250,45.068,45.000,0.00,0.10,-272.73,-272.79,-6,996,-4,22.7,28.3,3.4,22.5,29.1,3.6,5.73,1.96,2.0,26.8
2015-07-29 00:50:00,0.0,1.87685,0.00056,386.130,0.062,0.9964,0.0018,140.000,45.000,34398.11177,1.89587,390.905,32.257,45.068,45.000,0.00,0.10,-272.74,-272.79,-6,996,-4,22.8,28.4,3.5,22.5,29.2,3.7,5.73,1.99,2.0,26.9
2015-07-29 00:51:00,0.0,1.87675,0.00028,386.365,0.146,0.9949,0.0024,139.996,45.000,34394.50084,1.89574,391.128,32.260,45.068,45.000,0.00,0.10,-272.73,-272.79,-7,996,-4,22.7,28.3,3.5,22.5,29.2,3.7,5.73,1.98,2.0,26.9
2015-07-29 00:52:00,0.0,1.87674,0.00055,386.562,0.033,0.9948,0.0014,139.997,45.000,34394.85211,1.89566,391.339,32.250,45.068,45.000,0.00,0.10,-272.73,-272.79,-6,996,-4,22.7,28.4,3.5,22.5,29.2,3.7,5.73,1.90,2.0,26.9
2015-07-29 00:53:00,0.0,1.87677,0.00031,386.525,0.061,0.9960,0.0020,140.000,45.000,34396.64314,1.89579,391.305,32.252,45.068,45.000,0.00,0.10,-272.73,-272.79,-6,996,-4,22.7,28.4,3.5,22.5,29.2,3.7,5.73,1.87,2.0,26.9
2015-07-29 00:54:00,0.0,1.87684,0.00032,386.687,0.099,0.9968,0.0028,140.000,45.000,34396.90685,1.89582,391.471,32.264,45.068,45.000,0.00,0.10,-272.73,-272.79,-6,996,-4,22.7,28.4,3.5,22.5,29.2,3.7,5.73,1.92,2.0,26.9
2015-07-29 00:55:00,0.0,1.87714,0.00039,386.695,0.086,0.9955,0.0023,140.000,45.000,34398.01264,1.89611,391.476,32.271,45.068,45.000,0.00,0.10,-272.73,-272.79,-7,996,-4,22.7,28.4,3.5,22.5,29.2,3.7,5.73,1.98,2.0,26.9
2015-07-29 00:56:00,0.0,1.87636,0.00045,386.646,0.070,0.9981,0.0022,140.000,45.000,34399.97084,1.89543,391.431,32.260,45.068,45.000,0.00,0.10,-272.73,-272.79,-6,996,-4,22.8,28.4,3.5,22.5,29.2,3.7,5.73,2.00,2.0,26.9
2015-07-29 00:57:00,0.0,1.87673,0.00034,386.854,0.045,0.9964,0.0020,139.996,45.000,34396.83862,1.89570,391.642,32.255,45.068,45.000,0.00,0.10,-272.73,-272.80,-6,996,-4,22.8,28.4,3.5,22.5,29.2,3.7,5.73,1.95,2.0,26.9
2015-07-29 00:58:00,0.0,1.87699,0.00024,386.730,0.068,0.9984,0.0027,139.999,45.000,34395.03751,1.89604,391.530,32.260,45.068,45.000,0.00,0.10,-272.73,-272.80,-6,996,-4,22.8,28.5,3.5,22.5,29.3,3.7,5.73,1.88,2.0,26.9
2015-07-29 00:59:00,0.0,1.87701,0.00034,386.787,0.038,0.9984,0.0020,139.998,45.000,34396.84267,1.89606,391.575,32.261,45.068,45.000,0.00,0.10,-272.72,-272.79,-7,996,-4,22.8,28.4,3.5,22.5,29.3,3.7,5.73,1.89,2.0,26.9
2015-07-29 01:00:00,0.0,1.87735,0.00038,386.707,0.062,0.9999,0.0030,139.999,45.000,34395.23816,1.89641,391.516,32.263,45.068,45.000,0.00,0.10,-272.73,-272.79,-7,996,-4,22.8,28.5,3.6,22.5,29.3,3.7,5.73,1.96,2.0,26.9
2015-07-29 01:01:00,0.0,1.87712,0.00044,386.695,0.083,1.0012,0.0017,139.999,45.000,34395.51245,1.89623,391.498,32.289,45.068,45.000,0.00,0.10,-272.73,-272.79,-6,996,-4,22.8,28.5,3.6,22.5,29.4,3.8,5.73,2.00,2.0,26.8
2015-07-29 01:02:00,0.0,1.87714,0.00034,386.634,0.093,1.0013,0.0025,139.998,45.000,34397.74091,1.89626,391.444,32.305,45.068,45.000,0.00,0.10,-272.73,-272.79,-6,996,-4,22.8,28.5,3.6,22.5,29.4,3.8,5.73,1.98,2.0,26.9
2015-07-29 01:03:00,0.0,1.87646,0.00037,386.759,0.085,1.0046,0.0018,140.003,45.000,34399.27762,1.89562,391.587,32.313,45.068,45.000,0.00,0.10,-272.73,-272.79,-7,996,-4,22.8,28.6,3.6,22.5,29.4,3.8,5.73,1.90,2.0,26.9
2015-07-29 01:04:00,0.0,1.87689,0.00035,386.693,0.112,1.0072,0.0017,139.997,45.000,34397.19680,1.89611,391.525,32.312,45.068,45.000,0.00,0.10,-272.73,-272.79,-7,996,-4,22.8,28.7,3.7,22.5,29.5,3.9,5.73,1.88,2.0,26.9
2015-07-29 01:05:00,0.0,1.87673,0.00033,386.739,0.117,1.0088,0.0021,140.002,45.000,34399.69557,1.89598,391.595,32.313,45.068,45.000,0.00,0.10,-272.73,-272.79,-6,996,-4,22.8,28.8,3.7,22.5,29.6,3.9,5.73,1.93,2.0,26.8
2015-07-29 01:06:00,0.0,1.87709,0.00029,386.613,0.133,1.0128,0.0017,140.000,45.000,34398.31443,1.89636,391.474,32.310,45.068,45.000,0.00,0.10,-272.73,-272.79,-6,996,-4,22.8,28.8,3.7,22.5,29.6,3.9,5.73,1.99,2.0,26.8
2015-07-29 01:07:00,0.0,1.87700,0.00040,386.466,0.115,1.0152,0.0017,140.001,45.000,34399.60297,1.89638,391.346,32.309,45.068,45.000,0.00,0.10,-272.73,-272.79,-7,997,-4,22.8,29.0,3.8,22.5,29.8,4.0,5.73,2.00,2.0,26.9
2015-07-29 01:08:00,0.0,1.87771,0.00032,386.830,0.152,1.0135,0.0019,140.001,45.000,34398.12403,1.89702,391.694,32.308,45.068,45.000,0.00,0.10,-272.72,-272.79,-7,996,-4,22.8,28.9,3.7,22.5,29.7,4.0,5.73,1.93,2.0,26.9
2015-07-29 01:09:00,0.0,1.87815,0.00042,386.733,0.061,1.0133,0.0016,140.000,45.000,34399.29582,1.89746,391.606,32.312,45.068,45.000,0.00,0.10,-272.72,-272.79,-7,996,-4,22.8,28.9,3.8,22.5,29.7,3.9,5.73,1.87,2.0,26.9
2015-07-29 01:10:00,0.0,1.87889,0.00040,386.695,0.036,1.0146,0.0031,140.000,45.000,34394.85347,1.89824,391.568,32.313,45.068,45.000,0.00,0.10,-272.73,-272.79,-6,997,-4,22.8,28.9,3.8,22.5,29.7,3.9,5.73,1.90,2.0,26.9
2015-07-29 01:11:00,0.0,1.87856,0.00036,386.622,0.128,1.0142,0.0026,140.002,45.000,34395.77250,1.89795,391.491,32.313,45.068,45.000,0.00,0.10,-272.73,-272.80,-8,996,-3,22.8,28.9,3.8,22.5,29.8,4.0,5.73,1.98,2.0,26.9
2015-07-29 01:12:00,0.0,1.87860,0.00029,386.621,0.076,1.0155,0.0023,139.998,45.000,34395.96320,1.89799,391.499,32.313,45.068,45.000,0.00,0.10,-272.72,-272.79,-9,996,-4,22.8,28.9,3.8,22.5,29.7,4.0,5.73,2.00,2.0,26.9
2015-07-29 01:13:00,0.0,1.87888,0.00041,386.842,0.058,1.0167,0.0023,139.996,45.000,34398.44102,1.89828,391.730,32.313,45.068,45.000,0.00,0.10,-272.73,-272.79,-7,996,-5,22.8,29.0,3.8,22.5,29.8,4.0,5.73,1.96,2.0,26.9
2015-07-29 01:14:00,0.0,1.87951,0.00038,386.908,0.073,1.0181,0.0018,139.999,45.000,34400.45929,1.89894,391.800,32.312,45.068,45.000,0.00,0.10,-272.74,-272.79,-6,996,-6,22.8,29.0,3.8,22.5,29.8,4.0,5.73,1.89,2.0,26.9
2015-07-29 01:15:00,0.0,1.88017,0.00066,386.853,0.129,1.0175,0.0020,139.999,45.000,34399.46652,1.89956,391.741,32.304,45.068,45.000,0.00,0.10,-272.73,-272.79,-5,996,-5,22.8,29.0,3.8,22.6,29.8,4.0,5.73,1.88,2.0,26.9
2015-07-29 01:16:00,0.0,1.88097,0.00036,386.932,0.065,1.0181,0.0018,140.003,45.000,34400.91382,1.90042,391.830,32.301,45.068,45.000,0.00,0.10,-272.73,-272.78,-7,996,-5,22.8,29.0,3.8,22.6,29.8,4.0,5.73,1.94,2.0,26.9
2015-07-29 01:17:00,0.0,1.88158,0.00061,386.816,0.071,1.0201,0.0017,140.002,45.000,34400.93207,1.90106,391.723,32.293,45.068,45.000,0.00,0.10,-272.74,-272.79,-9,996,-6,22.8,29.1,3.9,22.6,29.9,4.0,5.73,2.00,2.0,26.9
2015-07-29 01:18:00,0.0,1.88130,0.00028,386.744,0.045,1.0222,0.0017,139.998,45.000,34399.49302,1.90088,391.657,32.296,45.068,45.000,0.00,0.10,-272.73,-272.79,-9,996,-3,22.8,29.1,3.9,22.5,29.9,4.1,5.73,1.98,2.0,26.9
2015-07-29 01:19:00,0.0,1.88195,0.00039,386.782,0.075,1.0227,0.0013,139.997,45.000,34399.26834,1.90148,391.698,32.312,45.068,45.000,0.00,0.10,-272.72,-272.79,-7,996,-3,22.8,29.1,3.9,22.5,29.9,4.1,5.73,1.92,2.0,26.9
2015-07-29 01:20:00,0.0,1.88272,0.00034,386.999,0.066,1.0224,0.0018,139.997,45.000,34401.03407,1.90222,391.912,32.313,45.068,45.000,0.00,0.10,-272.73,-272.79,-9,995,-4,22.8,29.1,3.9,22.6,30.0,4.1,5.73,1.87,2.0,26.9
2015-07-29 01:21:00,0.0,1.88331,0.00047,387.100,0.073,1.0212,0.0026,139.999,45.000,34400.53661,1.90286,392.015,32.313,45.068,45.000,0.00,0.10,-272.73,-272.79,-6,996,-4,22.8,29.1,3.9,22.6,29.9,4.1,5.73,1.90,2.0,26.9
2015-07-29 01:22:00,0.0,1.88397,0.00036,386.918,0.069,1.0223,0.0011,139.996,45.000,34400.21122,1.90349,391.836,32.315,45.068,45.000,0.00,0.10,-272.72,-272.79,-10,995,-4,22.8,29.1,3.9,22.6,30.0,4.1,5.73,1.97,2.0,26.9
2015-07-29 01:23:00,0.0,1.88451,0.00046,386.792,0.141,1.0231,0.0024,139.996,45.000,34400.66435,1.90413,391.708,32.313,45.068,45.000,0.00,0.10,-272.72,-272.79,-6,998,-6,22.8,29.1,3.9,22.6,30.0,4.1,5.73,2.00,2.0,26.9
2015-07-29 01:24:00,0.0,1.88502,0.00060,386.885,0.100,1.0207,0.0025,139.996,45.000,34399.47675,1.90448,391.793,32.313,45.068,45.000,0.00,0.10,-272.73,-272.79,-6,996,-1,22.8,29.1,3.9,22.6,29.9,4.1,5.73,1.96,2.0,26.9
2015-07-29 01:25:00,0.0,1.88658,0.00057,386.865,0.036,1.0213,0.0023,139.996,45.000,34398.58267,1.90611,391.780,32.309,45.068,45.000,0.00,0.10,-272.72,-272.79,-4,996,-7,22.8,29.1,3.8,22.6,29.9,4.1,5.73,1.89,2.0,26.9
2015-07-29 01:26:00,0.0,1.88709,0.00037,386.899,0.088,1.0203,0.0027,140.004,45.000,34402.33861,1.90671,391.801,32.301,45.068,45.000,0.00,0.10,-272.73,-272.79,-7,997,-6,22.8,29.0,3.8,22.6,29.9,4.0,5.73,1.88,2.0,26.9
2015-07-29 01:27:00,0.0,1.88683,0.00038,386.983,0.083,1.0200,0.0017,139.997,45.000,34402.51422,1.90640,391.890,32.298,45.068,45.000,0.00,0.10,-272.73,-272.79,-6,996,-7,22.8,29.0,3.8,22.6,29.9,4.0,5.73,1.94,2.0,26.9
2015-07-29 01:28:00,0.0,1.88680,0.00040,386.916,0.123,1.0168,0.0016,140.002,45.000,34403.55149,1.90631,391.814,32.305,45.068,45.000,0.00,0.10,-272.73,-272.80,-8,998,-4,22.8,28.9,3.8,22.6,29.8,4.0,5.73,2.00,2.0,26.9
2015-07-29 01:29:00,0.0,1.88696,0.00047,386.629,0.107,1.0155,0.0017,139.998,45.000,34403.09087,1.90638,391.510,32.297,45.068,45.000,0.00,0.10,-272.72,-272.79,-5,996,-5,22.8,28.9,3.8,22.6,29.7,4.0,5.73,1.98,2.0,26.9
2015-07-29 01:30:00,0.0,1.88771,0.00043,386.522,0.090,1.0205,0.0025,140.000,45.000,34402.75640,1.90727,391.430,32.307,45.068,45.000,0.00,0.10,-272.73,-272.78,-8,995,-7,22.8,29.0,3.8,22.6,29.8,4.0,5.73,1.92,2.0,26.9
2015-07-29 01:31:00,0.0,1.88790,0.00056,386.354,0.078,1.0234,0.0024,139.998,45.000,34400.03344,1.90753,391.265,32.296,45.068,45.000,0.00,0.10,-272.73,-272.79,-2,997,-6,22.8,29.1,3.9,22.6,29.9,4.1,5.73,1.87,2.0,26.9
2015-07-29 01:32:00,0.0,1.88874,0.00034,386.527,0.075,1.0268,0.0025,140.000,45.000,34400.06797,1.90845,391.460,32.307,45.068,45.000,0.00,0.10,-272.73,-272.79,-3,996,-1,22.8,29.3,4.0,22.6,30.1,4.2,5.73,1.90,2.0,26.9
2015-07-29 01:33:00,0.0,1.88880,0.00043,386.476,0.103,1.0317,0.0025,140.001,45.000,34401.71386,1.90860,391.428,32.303,45.068,45.000,0.00,0.10,-272.73,-272.79,-6,996,-4,22.8,29.4,4.0,22.6,30.2,4.2,5.73,1.98,2.0,26.9
2015-07-29 01:34:00,0.0,1.88907,0.00038,386.589,0.094,1.0347,0.0020,140.001,45.000,34400.52259,1.90898,391.562,32.302,45.068,45.000,0.00,0.10,-272.73,-272.79,-5,995,-4,22.8,29.5,4.1,22.6,30.3,4.3,5.73,2.00,2.0,26.9
2015-07-29 01:35:00,0.0,1.88947,0.00040,386.618,0.086,1.0334,0.0012,140.000,45.000,34401.56005,1.90929,391.581,32.312,45.068,45.000,0.00,0.10,-272.73,-272.79,-5,996,-5,22.8,29.4,4.0,22.6,30.3,4.3,5.73,1.96,2.0,26.9
2015-07-29 01:36:00,0.0,1.89060,0.00071,386.712,0.185,1.0289,0.0023,140.001,45.000,34403.14100,1.91025,391.661,32.312,45.068,45.000,0.00,0.10,-272.72,-272.78,-6,996,-5,22.8,29.2,3.9,22.6,30.1,4.2,5.73,1.89,2.0,26.9
2015-07-29 01:37:00,0.0,1.89193,0.00073,386.640,0.139,1.0258,0.0024,139.995,45.000,34401.48738,1.91158,391.566,32.313,45.068,45.000,0.00,0.10,-272.72,-272.79,-5,996,-9,22.8,29.2,3.9,22.6,30.0,4.1,5.73,1.88,2.0,26.9
2015-07-29 01:38:00,0.0,1.89368,0.00065,386.757,0.099,1.0258,0.0015,139.998,45.000,34403.54113,1.91341,391.698,32.312,45.068,45.000,0.00,0.10,-272.73,-272.80,-9,996,-5,22.8,29.2,3.9,22.6,30.0,4.1,5.73,1.94,2.0,26.9
2015-07-29 01:39:00,0.0,1.89402,0.00051,386.726,0.128,1.0269,0.0013,140.003,45.000,34402.16124,1.91382,391.659,32.308,45.068,45.000,0.00,0.10,-272.73,-272.79,-7,996,-5,22.8,29.2,3.9,22.6,30.0,4.1,5.73,1.99,2.0,26.9
2015-07-29 01:40:00,0.0,1.89432,0.00060,386.637,0.081,1.0276,0.0016,140.001,45.000,34402.67532,1.91409,391.579,32.307,45.068,45.000,0.00,0.10,-272.73,-272.79,-6,995,-6,22.8,29.2,3.9,22.6,30.1,4.2,5.73,1.99,2.0,26.9
2015-07-29 01:41:00,0.0,1.89527,0.00064,386.682,0.121,1.0294,0.0027,139.998,45.000,34399.97525,1.91504,391.625,32.309,45.068,45.000,0.00,0.10,-272.73,-272.79,-10,996,-0,22.8,29.3,4.0,22.6,30.1,4.2,5.73,1.93,2.0,26.9
2015-07-29 01:42:00,0.0,1.89559,0.00034,386.684,0.090,1.0315,0.0030,140.001,45.000,34400.01987,1.91546,391.649,32.275,45.068,45.000,0.00,0.10,-272.73,-272.79,-6,996,-2,22.8,29.4,4.0,22.6,30.2,4.2,5.73,1.88,2.0,26.9
2015-07-29 01:43:00,0.0,1.89555,0.00037,386.612,0.066,1.0379,0.0019,140.001,45.000,34402.00892,1.91557,391.603,32.253,45.068,45.000,0.00,0.10,-272.72,-272.78,-3,995,-6,22.8,29.6,4.1,22.6,30.4,4.3,5.73,1.90,2.1,26.9
2015-07-29 01:44:00,0.0,1.89638,0.00046,386.630,0.084,1.0410,0.0012,140.001,45.000,34399.36839,1.91643,391.629,32.264,45.068,45.000,0.00,0.10,-272.73,-272.79,-7,997,-7,22.8,29.7,4.2,22.6,30.5,4.4,5.73,1.97,2.0,26.9
2015-07-29 01:45:00,0.0,1.89703,0.00042,386.420,0.133,1.0426,0.0019,139.998,45.000,34397.82159,1.91712,391.444,32.264,45.069,45.000,0.00,0.10,-272.73,-272.79,-7,996,-4,22.8,29.7,4.2,22.6,30.5,4.4,5.73,2.00,2.0,27.0
2015-07-29 01:46:00,0.0,1.89831,0.00079,386.570,0.084,1.0443,0.0024,139.999,45.000,34396.94727,1.91835,391.583,32.259,45.069,45.000,0.00,0.10,-272.72,-272.78,-9,999,-4,22.8,29.7,4.2,22.6,30.6,4.4,5.73,1.97,2.1,26.9
2015-07-29 01:47:00,0.0,1.89937,0.00064,386.581,0.066,1.0446,0.0020,140.002,45.000,34399.19306,1.91954,391.599,32.255,45.068,45.000,0.00,0.10,-272.72,-272.79,-5,994,-5,22.8,29.7,4.2,22.6,30.6,4.4,5.73,1.89,2.1,26.9
2015-07-29 01:48:00,0.0,1.90046,0.00079,386.574,0.109,1.0434,0.0016,140.000,45.000,34398.08331,1.92057,391.591,32.281,45.068,45.000,0.00,0.31,-270.85,-270.33,-7,997,-5,22.8,29.7,4.2,22.6,30.6,4.4,5.43,2.03,-1.6,26.9